Simultaneous Nadir Overpasses (SNOs) Predictions

Prediction of SNOs between TERRA and METOP-C Satellite Orbit:

Table of predicted SNOs for the next 14.0 days since TLE Epoch: 6/14/2024
Index Date (TERRA) Time (TERRA) Lat,Lon (TERRA) SZA (TERRA ) Date (METOP-C) Time (METOP-C) Lat,Lon (METOP-C) SZA (METOP-C ) Distance(km) Time Diff (sec)
1 06/17/2024 06:24:28 -77.19, -91.15 126.23 06/17/2024 06:23:28 -77.20, -91.14 126.23 0.60 60
2 06/17/2024 07:13:34 77.82, 79.01 54.46 06/17/2024 07:13:53 77.83, 79.11 54.48 2.57 19
3 06/19/2024 21:44:19 77.51,-139.98 54.07 06/19/2024 21:44:20 77.50,-140.02 54.07 1.06 1
4 06/22/2024 12:15:02 77.30, 1.51 53.85 06/22/2024 12:14:45 77.29, 1.44 53.84 1.85 17
5 06/22/2024 13:04:13 -77.83, 171.33 125.57 06/22/2024 13:05:14 -77.83, 171.31 125.56 0.53 61
6 06/25/2024 02:45:43 77.15, 143.27 53.74 06/25/2024 02:45:08 77.15, 143.28 53.74 0.19 35
7 06/25/2024 03:34:53 -77.74, -46.76 125.63 06/25/2024 03:35:36 -77.75, -46.68 125.61 2.18 43
8 06/27/2024 17:16:27 76.84, -75.56 53.50 06/27/2024 17:15:35 76.83, -75.61 53.50 1.49 52



Historial Predications of SNOs between TERRA and METOP-C
